Back to catalog

DELTA 1 DEB

AliveSSO
NORAD 26834·DEBRIS·🇺🇸 United States

Launched Jun 12, 1975 from Vandenberg Space Force Base

Loading…

Next Passes (next 24 hours)

TLE

FreshSource: Space-Track

Epoch: Sep 14, 2026, 00:20 UTC

1 26834U 75052KN  26257.01409057 -.00000026  00000-0  31409-4 0  9990
2 26834  99.7111 277.8886 0056246 216.9884 173.4290 13.32963957240066

Track DELTA 1 DEB in real time with AllMySat

Download on the App Store